User: anonymous
Location: Caltech
(34.1382°N, 118.1253°W)
Time: 19:42:05
(UTC-07:00)
Language:

Iridium 49 - Orbit

View from above orbital plane
View from above orbital plane
View from above satellite
View from above satellite

Ground track
Ground track

The orbit data is extracted from the following two-line orbital elements,

1 25108U 97082E   14113.50472894  .00000614  00000-0  21211-3 0  7350
2 25108 086.4000 016.4145 0002215 102.3692 022.6857 14.34208471855440
Epoch (UTC): 23 April 2014 12:06:48
Eccentricity: 0.0002215
inclination: 86.4000°
perigee height: 776 km
apogee height: 779 km
right ascension of ascending node: 16.4145°
argument of perigee: 102.3692°
revolutions per day: 14.34208471
mean anomaly at epoch: 22.6857°
orbit number at epoch: 85544

The dashed part of the orbit path shows where the satellite is in the earth's shadow,  

DLR